sat.trackr.live / text

‹ back to catalog

TRANSPORTER-16 OBJECT BD

NORAD 68467 · 2026-067BD

PAYLOAD ACTIVE UNKNOWN

§ Identity

Operator
Country
TBD
Launch date
2026-03-30
Launch site
AFWTR
Launch vehicle
Mass (kg)
RCS (m²)

External: N2YO · Heavens-Above · Gunter

§ Orbital elements

Epoch: 2026-09-19T03:14:22.837056Z

Period
94.63 min
Inclination
97.4500°
Eccentricity
0.0008391
Mean motion
15.21728133 rev/d
Perigee alt
494.9 km
Apogee alt
506.4 km
Semi-major
6,878.8 km
B*
5.7867e-4
RAAN
219.2663°
Arg perigee
102.6699°
Mean anomaly
257.5475°
Rev number
2,621

§ Raw data

TRANSPORTER-16 OBJECT BD1 68467U 26067BD  26262.13498654  .00013062  00000+0  57867-3 0  99972 68467  97.4500 219.2663 0008391 102.6699 257.5475 15.21728133 26210

JSON: /api/v1/satellites/68467 · /tle

For live sub-satellite position, see the globe view (requires WebGL).

§ Visibility from observer

Set your observer location to see the next 7 days of passes ≥ 10°. The values pass through the URL so the page stays shareable.

No JS? Fill the form by hand. The geolocation button needs JavaScript.